Regional Weather Roundup
Issued by NWS

Home | Current Version | Previous Version | Graphics & Text | Print | Product List | Glossary On
Versions: 1 2 3 4 5 6 7 8 9 10 11 12 13 14 15 16 17 18 19 20 21 22 23 24 25 26 27 28 29 30 31 32 33 34 35 36 37 38 39 40 41 42 43 44 45 46 47 48 49 50
000
ASUS43 KMKX 170059
RWRWI

WISCONSIN REGIONAL WEATHER ROUNDUP
NATIONAL WEATHER SERVICE MILWAUKEE/SULLIVAN WI
700 PM CST MON JAN 16 2017

NOTE: "FAIR" INDICATES FEW OR NO CLOUDS BELOW 12,000 FEET WITH NO
SIGNIFICANT WEATHER AND/OR OBSTRUCTIONS TO VISIBILITY.

WIZ001-002-006>008-014>016-023>028-170200-
NORTHWEST WISCONSIN

CITY           SKY/WX    TMP DP  RH WIND       PRES   REMARKS
SUPERIOR ARPT  CLOUDY    21  17  84 CALM      30.07S
ASHLAND        CLOUDY    31  21  66 S7        30.08F WCI  24
HAYWARD        CLOUDY    26  18  71 NE5       30.05F WCI  20
SIREN          CLOUDY    25  19  78 CALM      30.06S
CUMBERLAND     CLOUDY    27  18  69 E5        30.03F WCI  21
RICE LAKE      CLOUDY    25  19  78 CALM      30.06S
CHETEK         CLOUDY    27  21  80 CALM      30.05F
LADYSMITH      CLOUDY    27  20  73 E5        30.06F WCI  22
EAU CLAIRE     FRZ RAIN  29  25  85 NE7       30.02F FOG     WCI  22
MENOMONIE      MIX PCPN  31  25  77 NE3       30.04F
NEW RICHMOND   MIX PCPN  29  20  68 E7        30.03F WCI  22
OSCEOLA        CLOUDY    29  19  67 NE3       30.06F
$$

WIZ003>005-009-010-017-018-170200-
NORTH CENTRAL WISCONSIN

CITY           SKY/WX    TMP DP  RH WIND       PRES   REMARKS
MANITOWISH WTR CLOUDY    20  18  90 CALM      30.05F
ARBOR VITAE    CLOUDY    25  21  85 CALM      30.06S
WOODRUFF       CLOUDY    25  21  85 CALM      30.06S
RHINELANDER    CLOUDY    28  21  75 CALM      30.05F
EAGLE RIVER    CLOUDY    27  21  78 CALM      30.06S
LAND O LAKES   CLOUDY    23  19  86 CALM      30.08F
PHILLIPS       CLOUDY    28  20  73 CALM      30.04S
TOMAHAWK       CLOUDY    25  19  78 CALM      30.06S
MEDFORD        MIX PCPN  31  21  66 E7        30.03S WCI  24
MERRILL        CLOUDY    28  21  74 CALM        N/A
$$

WIZ029-030-035-036-043>047-170200-
CENTRAL WISCONSIN

CITY           SKY/WX    TMP DP  RH WIND       PRES   REMARKS
WAUSAU         FRZ RAIN  30  22  72 E5        30.05S WCI  25
MOSINEE        NOT AVBL
MARSHFIELD     FRZ RAIN  30  27  88 E9        30.02F FOG     WCI  22
STEVENS POINT  MIX PCPN  28  27  97 E7        30.06F WCI  20
WAUPACA        MIX PCPN  32  29  90 CALM      30.08F
WAUTOMA        FRZ RAIN  32  31  96 E10       30.04F FOG     WCI  24
WISC RAPIDS    NOT AVBL
CAMP DOUGLAS   NOT AVBL
$$

WIZ011>013-019>022-031-037>040-048>050-170200-
NORTHEAST WISCONSIN

CITY           SKY/WX    TMP DP  RH WIND       PRES   REMARKS
ANTIGO         CLOUDY    30  19  65 SE7       30.06S WCI  23
SHAWANO        DRIZZLE   31  24  74 CALM      30.11F
OCONTO         CLOUDY    29  21  70 CALM      30.12F
STURGEON BAY   CLOUDY    31  23  72 E3        30.12F
GREEN BAY      FRZ RAIN  33  30  88 NE6       30.10F FOG     WCI  28
MANITOWOC      NOT AVBL
APPLETON       RAIN      30  30 100 E6        30.07S WCI  24
CLINTONVILLE   MIX PCPN  30  27  86 CALM      30.09F
OSHKOSH        LGT RAIN  33  31  92 E7        30.05F FOG     WCI  27
$$

WIZ032>034-041-042-053>061-170200-
SOUTHWEST WISCONSIN

CITY           SKY/WX    TMP DP  RH WIND       PRES   REMARKS
LA CROSSE      LGT RAIN  38  32  79 E7        29.99F WCI  33
SPARTA         MIX PCPN  32  32  99 E7        30.01F WCI  26
VIROQUA        CLOUDY    32  32 100 E6        29.95F WCI  27
BOSCOBEL       LGT RAIN  34  32  92 NE3       29.98S FOG
PRAIRIE DU CHI MIX PCPN  33  32  96 CALM      29.97F
PLATTEVILLE    CLOUDY    34  34 100 E13       29.95F WCI  25
$$

WIZ056-057-062-063-064-067-068-170200-
SOUTH CENTRAL WISCONSIN

CITY           SKY/WX    TMP DP  RH WIND       PRES   REMARKS
REEDSBURG      DRIZZLE   32  32 100 E6        29.99F WCI  26
BARABOO/DELLS  LGT RAIN  32  32  99 E8        30.00F WCI  25
LONE ROCK      NOT AVBL
MINERAL POINT  LGT RAIN  34  34 100 E8        29.95R WCI  27
MADISON        RAIN      33  32  96 E10       29.98F FOG     WCI  25
MIDDLETON      CLOUDY    34  34 100 E7        29.99F WCI  28
WATERTOWN      MIX PCPN  33  33 100 E10       30.01F WCI  25
MONROE         FOG       32  32 100 E9G16     29.95F VSB 1   WCI  24
JANESVILLE     LGT RAIN  36  36 100 E18       29.94F FOG     WCI  25
$$

WIZ051-052-058>065-066-070>072-170200-
SOUTHEAST WISCONSIN

CITY           SKY/WX    TMP DP  RH WIND       PRES   REMARKS
MILWAUKEE      LGT RAIN  36  34  92 E14       30.04F FOG     WCI  27
WAUKESHA       LGT RAIN  32  32 100 E17       30.03F FOG     WCI  21
MILWAUKEE/TIMM LGT RAIN  34  32  93 E9        30.04F FOG     WCI  26
RACINE         LGT RAIN  36  34  92 E12       30.05F FOG     WCI  28
KENOSHA        FOG       36  35  96 E12       30.02F VSB 1/2 WCI  28
FOND DU LAC    RAIN      35  31  85 E12       30.04F WCI  27
SHEBOYGAN      LGT RAIN  33  32  96 E8        30.08F FOG     WCI  26
WEST BEND      LGT RAIN  32  32 100 E10       30.05F WCI  24
JUNEAU         LGT RAIN  33  32  96 E10       30.03F WCI  25
$$

LSZ147-162-170200-
LAKE SUPERIOR

STATION/POSITION TIME  TEMP    WIND        PRES    WAVE
                       AIR SEA DIR/SP/G            HT/PER
                 (UTC) (F)     (DEG/KT/KT) (MB)    (FT/S)
DEVILS ISLAND    0000   32      CALM  /  2 1019.5R
PORT WING        0040   24      CALM  /  2 1018.6S
SAXON HARBOR     0040   27     190/  3/  4 1018.3F
$$

LMZ867-665-643>646-170200-
LAKE MICHIGAN

STATION/POSITION TIME  TEMP    WIND        PRES    WAVE
                       AIR SEA DIR/SP/G            HT/PER
                 (UTC) (F)     (DEG/KT/KT) (MB)    (FT/S)
NORTHPORT PIER   0040   30        CALM     1020.3F
SISTER BAY       2320   31     160/  5/  6   N/A
ALGOMA LAKESHORE 0023             CALM       N/A
KEWAUNEE LAKESHO 0030   34     120/  4/  5 1019.5F
SHEBOYGAN LAKESH 0000   34      80/ 10/ 11 1019.8F
PORT WASHINGTON  0040   35      90/ 12/ 13 1019.3F
MILWAUKEE LAKESH 0030   35      80/ 11/ 12   N/A
KENOSHA   LAKESH 0000   35      90/ 10/ 10 1017.6
$$

TC  - TEMPERATURE IN CELSIUS
VSB - VISIBILITY IN STATUTE MILES
WCI - WIND CHILL INDEX
HX  - HEAT INDEX





USA.gov is the U.S. government's official web portal to all federal, state and local government web resources and services.